Regional Weather Roundup
Issued by NWS

Home | Current Version | Previous Version | Text Only | Print | Product List | Glossary On
Versions: 1 2 3 4 5 6 7 8 9 10 11 12 13 14 15 16 17 18 19 20 21 22 23 24 25 26 27 28 29 30 31 32 33 34 35 36 37 38 39 40 41 42 43 44 45 46 47 48 49 50
000
ASUS43 KDMX 281907
RWRIA

WEATHER ROUNDUP FOR IOWA
NATIONAL WEATHER SERVICE DES MOINES IA
100 PM CST SUN DEC 28 2014

NOTE: "FAIR" INDICATES FEW OR NO CLOUDS BELOW 12,000 FEET WITH NO
SIGNIFICANT WEATHER AND/OR OBSTRUCTIONS TO VISIBILITY.

* - THESE STATIONS ARE NOT NWS STATIONS...THUS NOT UNDER NWS
QUALITY CONTROL.  THEY ALSO DO NOT REPORT WEATHER SUCH
AS PRECIPITATION OR FOG.

IAZ001>003-012>014-020>022-031>034-043>046-282000-
   NORTHWEST IOWA

CITY           SKY/WX    TMP DP  RH WIND       PRES   REMARKS
CARROLL *      SUNNY     27  19  74 NW5       30.12F WCI  21
CHEROKEE *     MOSUNNY   19  16  86 CALM      30.13F
DENISON *      SUNNY     27  19  74 N5        30.09F WCI  21
LE MARS *      SUNNY     16  14  93 N5        30.14F WCI   9
ORANGE CITY *  SUNNY     19  16  86 NE3       30.11F
SHELDON *      SUNNY     19  18  93 NE5       30.10F WCI  13
SIOUX CITY     SUNNY     21  14  74 CALM      30.14F
SPENCER        SUNNY     24  17  74 NE7       30.12F WCI  16
STORM LAKE *   SUNNY     19  14  79 NW3       30.11F
$$

IAZ055>058-069>071-079>083-090>094-282000-
   SOUTHWEST IOWA

CITY           SKY/WX    TMP DP  RH WIND       PRES   REMARKS
ATLANTIC *     SUNNY     30  23  74 VRB5      30.12F WCI  25
AUDUBON *      SUNNY     30  19  64 CALM      30.11F
CLARINDA *     SUNNY     34  25  69 VRB6G13   30.15F WCI  29
COUNCIL BLFS * SUNNY     30  19  64 VRB5      30.11S WCI  25
CRESTON *      SUNNY     32  23  69 SW9       30.13F WCI  24
HARLAN  *      SUNNY     28  25  86 CALM      30.15F
LAMONI         SUNNY     34  23  64 SW13      30.14F WCI  25
RED OAK *      SUNNY     32  23  69 SW6       30.14F WCI  26
SHENANDOAH *   SUNNY     34  23  64 SW8       30.14F WCI  27
$$

IAZ047>049-059>061-072>074-084-282000-
   CENTRAL IOWA

CITY           SKY/WX    TMP DP  RH WIND       PRES   REMARKS
AMES           SUNNY     31  22  69 SW6       30.14F WCI  25
ANKENY *       SUNNY     32  19  59 VRB5      30.14F WCI  27
CHARITON *     SUNNY     32  23  69 SW9       30.14F WCI  24
DES MOINES     MOSUNNY   32  22  66 SW7       30.15F WCI  26
GRINNELL*      SUNNY     32  23  69 S7        30.15S WCI  26
KNOXVILLE *    SUNNY     34  21  60 SW8       30.14F WCI  27
MARSHALLTOWN   SUNNY     29  23  78 SW6       30.13F WCI  23
PELLA *        SUNNY     36  25  64 SW6       30.16F WCI  31
PERRY *          N/A     30  25  80 W5        30.14S WCI  25
$$

IAZ004>006-015-016-023>025-035-036-282000-
   NORTH CENTRAL IOWA

CITY           SKY/WX    TMP DP  RH WIND       PRES   REMARKS
ALGONA *       SUNNY     19  14  79 CALM      30.13F
CLARION *      SUNNY     18  16  93 N5        30.14S WCI  11
ESTHERVILLE    SUNNY     21  16  81 N8        30.12F WCI  11
FORT DODGE *   SUNNY     21  14  73 NE6       30.13F WCI  14
MASON CITY     SUNNY     21  15  78 CALM      30.14F
FOREST CITY *  SUNNY     23  14  68 CALM      30.13R
IOWA FALLS *     N/A     27  19  74 CALM      30.14S
$$

IAZ007>011-017>019-026>030-037>042-050>054-066-282000-
   NORTHEAST IOWA

CITY           SKY/WX    TMP DP  RH WIND       PRES   REMARKS
CEDAR RAPIDS   SUNNY     30  17  58 W5        30.15F WCI  25
CHARLES CITY * SUNNY     23  18  80 CALM      30.14F
CLINTON *      SUNNY     30  16  55 SW6       30.20F WCI  24
DECORAH *      SUNNY     25  19  80 VRB5      30.12F WCI  19
DUBUQUE        SUNNY     29  16  58 SW8       30.14F WCI  21
MONTICELLO *   SUNNY     30  12  47 VRB7      30.16F WCI  23
OELWEIN *      SUNNY     28  19  69 CALM      30.14F
WATERLOO       SUNNY     30  20  66 CALM      30.14F
$$

IAZ064-065-067-068-078-282000-
   EAST CENTRAL IOWA

CITY           SKY/WX    TMP DP  RH WIND       PRES   REMARKS
DAVENPORT      SUNNY     31  17  56 S5        30.18F WCI  26
IOWA CITY      SUNNY     30  18  60 VRB5      30.19F WCI  25
MT. PLEASANT * SUNNY     32  16  51 SW3       30.18F
MUSCATINE *    SUNNY     34  18  51 CALM      30.19F
QUAD CITIES    SUNNY     32  17  54 S6        30.18F WCI  26
$$

IAZ062-063-075>077-085>089-095>099-282000-
   SOUTHEAST IOWA

CITY           SKY/WX    TMP DP  RH WIND       PRES   REMARKS
BURLINGTON     SUNNY     34  18  52 SW9       30.17F WCI  27
FAIRFIELD *    SUNNY     32  16  51 S8        30.17F WCI  25
FORT MADISON * SUNNY     36  23  60 S5        30.18F WCI  32
KEOKUK *       SUNNY     36  19  51 SW8       30.18F WCI  29
OSKALOOSA *      N/A     32  21  64 SW7       30.17S WCI  26
CENTERVILLE *  SUNNY     34  21  60 SW9       30.17F WCI  26
OTTUMWA        SUNNY     33  20  58 W8        30.16F WCI  26
WASHINGTON *   SUNNY     32  19  59 SW7       30.17F WCI  26
$$

ABBREVIATIONS USED IN REMARKS
   TC - TEMPERATURES IN CELSIUS
  WCI - WIND CHILL INDEX
   HX - HEAT INDEX
  VSB - VISIBILITY
$$




USA.gov is the U.S. government's official web portal to all federal, state and local government web resources and services.